This is the latest recevied weather packets stored in our database for station/object W8KVG. If no packets are shown the sender has not sent any weather packets the latest 10 day(s).
| Time | Temp. | Humidity | Pressure | Rain* | Wind** | Luminosity | Snow |
|---|---|---|---|---|---|---|---|
| 1777499630 | 13.89° C | 99% | 1005.9 hPa | 0 mm | - | 28 W/m² | - |
| 1777499327 | 13.89° C | 99% | 1005.9 hPa | 0 mm | - | 53 W/m² | - |
| 1777499025 | 13.89° C | 99% | 1005.9 hPa | 0 mm | - | 54 W/m² | - |
| 1777498721 | 13.89° C | 99% | 1005.9 hPa | 0 mm | - | 36 W/m² | - |
| 1777498418 | 13.89° C | 99% | 1005.8 hPa | 0 mm | - | 21 W/m² | - |
| 1777498115 | 13.33° C | 99% | 1005.7 hPa | 0 mm | - | 37 W/m² | - |
| 1777497812 | 13.89° C | 99% | 1005.4 hPa | 0 mm | - | 29 W/m² | - |
| 1777497508 | 13.89° C | 99% | 1005.5 hPa | 0 mm | - | 25 W/m² | - |
| 1777497205 | 13.89° C | 99% | 1005.7 hPa | 0 mm | - | 25 W/m² | - |
| 1777496901 | 13.89° C | 99% | 1005.6 hPa | 0 mm | - | 76 W/m² | - |
| 1777496599 | 13.89° C | 99% | 1005.5 hPa | 0 mm | - | 85 W/m² | - |
| 1777496295 | 13.89° C | 99% | 1005.4 hPa | 0 mm | - | 48 W/m² | - |
| 1777495991 | 14.44° C | 99% | 1005.4 hPa | 0 mm | - | 46 W/m² | - |
| 1777495687 | 14.44° C | 99% | 1005 hPa | 0 mm | - | 189 W/m² | - |
| 1777495383 | 15° C | 99% | 1005.1 hPa | 1.27 mm | - | 194 W/m² | - |
| 1777495080 | 13.89° C | 99% | 1005.2 hPa | 1.78 mm | - | 106 W/m² | - |
| 1777494777 | 13.89° C | 99% | 1005.5 hPa | 1.78 mm | - | 56 W/m² | - |
| 1777494474 | 13.89° C | 99% | 1005.6 hPa | 1.27 mm | - | 59 W/m² | - |
| 1777494171 | 13.89° C | 99% | 1005.6 hPa | 0.51 mm | - | 56 W/m² | - |
| 1777493868 | 13.89° C | 99% | 1005.7 hPa | 0 mm | - | 33 W/m² | - |
| 1777493565 | 13.89° C | 99% | 1005.7 hPa | 0 mm | - | 24 W/m² | - |
| 1777493263 | 13.89° C | 99% | 1005.5 hPa | 0 mm | - | 46 W/m² | - |
| 1777492953 | 13.89° C | 99% | 1005.4 hPa | 0 mm | - | 44 W/m² | - |
| 1777492650 | 13.89° C | 99% | 1005.7 hPa | 0 mm | - | 82 W/m² | - |
| 1777492345 | 13.89° C | 99% | 1005.5 hPa | 0.51 mm | - | 91 W/m² | - |
* Rain latest hour (hover to see other rain measurements)
** Current wind speed in m/s (hover to see current wind gust speed)